Time,TemperatureF,DewpointF,PressureIn,WindDirection,WindDirectionDegrees,WindSpeedMPH,WindSpeedGustMPH,Humidity,HourlyPrecipIn,Conditions,Clouds,dailyrainin,SoftwareType,DateUTC
2014-01-12 00:02:00,22.3,20.8,29.82,South,185,4.0,4.0,94,0.00,,,0.00,Wunderground v.1.15,2014-01-12 06:02:00,
2014-01-12 00:06:00,22.3,20.8,29.82,South,180,5.0,6.0,94,0.00,,,0.00,Wunderground v.1.15,2014-01-12 06:06:00,
2014-01-12 00:11:00,22.2,20.7,29.82,South,175,5.0,7.0,94,0.00,,,0.00,Wunderground v.1.15,2014-01-12 06:11:00,
2014-01-12 00:16:00,22.0,20.5,29.82,South,178,8.0,8.0,94,0.00,,,0.00,Wunderground v.1.15,2014-01-12 06:16:00,
2014-01-12 00:22:00,22.3,21.1,29.81,SSE,168,5.0,6.0,95,0.00,,,0.00,Wunderground v.1.15,2014-01-12 06:22:00,
2014-01-12 00:28:00,22.1,20.6,29.81,South,173,5.0,7.0,94,0.00,,,0.00,Wunderground v.1.15,2014-01-12 06:28:00,
2014-01-12 00:33:00,22.0,20.5,29.81,South,178,6.0,6.0,94,0.00,,,0.00,Wunderground v.1.15,2014-01-12 06:33:00,
2014-01-12 00:38:00,22.0,20.8,29.81,South,172,8.0,8.0,95,0.00,,,0.00,Wunderground v.1.15,2014-01-12 06:38:00,
2014-01-12 00:44:00,22.0,20.8,29.81,South,176,8.0,8.0,95,0.00,,,0.00,Wunderground v.1.15,2014-01-12 06:44:00,
2014-01-12 00:50:00,22.0,20.8,29.80,South,172,6.0,8.0,95,0.00,,,0.00,Wunderground v.1.15,2014-01-12 06:50:00,
2014-01-12 00:56:00,21.8,20.6,29.80,SSE,163,4.0,7.0,95,0.00,,,0.00,Wunderground v.1.15,2014-01-12 06:56:00,
2014-01-12 01:04:00,21.7,20.2,29.80,SSE,151,6.0,6.0,94,0.00,,,0.00,Wunderground v.1.15,2014-01-12 07:04:00,
2014-01-12 01:10:00,21.6,20.4,29.80,SSE,153,5.0,6.0,95,0.00,,,0.00,Wunderground v.1.15,2014-01-12 07:10:00,
2014-01-12 01:15:00,21.6,20.4,29.80,SSE,163,4.0,5.0,95,0.00,,,0.00,Wunderground v.1.15,2014-01-12 07:15:00,
2014-01-12 01:23:00,21.6,20.4,29.79,SSE,159,7.0,7.0,95,0.00,,,0.00,Wunderground v.1.15,2014-01-12 07:23:00,
2014-01-12 01:28:00,21.5,20.3,29.79,SSE,153,8.0,8.0,95,0.00,,,0.00,Wunderground v.1.15,2014-01-12 07:28:00,
2014-01-12 01:34:00,21.6,20.4,29.79,SSE,157,8.0,8.0,95,0.00,,,0.00,Wunderground v.1.15,2014-01-12 07:34:00,
2014-01-12 01:39:00,21.9,20.7,29.79,SSE,165,8.0,9.0,95,0.00,,,0.00,Wunderground v.1.15,2014-01-12 07:39:00,
2014-01-12 01:44:00,22.2,21.0,29.79,SSE,165,7.0,8.0,95,0.00,,,0.00,Wunderground v.1.15,2014-01-12 07:44:00,
2014-01-12 01:50:00,22.2,21.0,29.78,SSE,163,8.0,8.0,95,0.00,,,0.00,Wunderground v.1.15,2014-01-12 07:50:00,
2014-01-12 01:56:00,22.3,21.1,29.78,SSE,164,9.0,9.0,95,0.00,,,0.00,Wunderground v.1.15,2014-01-12 07:56:00,
2014-01-12 02:01:00,22.0,20.5,29.78,SSE,163,7.0,8.0,94,0.00,,,0.00,Wunderground v.1.15,2014-01-12 08:01:00,
2014-01-12 02:06:00,21.5,20.0,29.78,SE,142,4.0,7.0,94,0.00,,,0.00,Wunderground v.1.15,2014-01-12 08:06:00,
2014-01-12 02:13:00,21.1,19.6,29.78,SSE,155,5.0,5.0,94,0.00,,,0.00,Wunderground v.1.15,2014-01-12 08:13:00,
2014-01-12 02:19:00,21.0,19.5,29.78,SE,132,5.0,6.0,94,0.00,,,0.00,Wunderground v.1.15,2014-01-12 08:19:00,
2014-01-12 02:24:00,21.0,19.8,29.78,SE,142,4.0,5.0,95,0.00,,,0.00,Wunderground v.1.15,2014-01-12 08:24:00,
2014-01-12 02:29:00,21.1,19.9,29.78,SSE,153,6.0,6.0,95,0.00,,,0.00,Wunderground v.1.15,2014-01-12 08:29:00,
2014-01-12 02:34:00,21.1,19.9,29.77,SSE,157,5.0,6.0,95,0.00,,,0.00,Wunderground v.1.15,2014-01-12 08:34:00,
2014-01-12 02:39:00,21.1,19.9,29.78,South,188,6.0,7.0,95,0.00,,,0.00,Wunderground v.1.15,2014-01-12 08:39:00,
2014-01-12 02:44:00,21.6,20.4,29.77,SSE,148,4.0,5.0,95,0.00,,,0.00,Wunderground v.1.15,2014-01-12 08:44:00,
2014-01-12 02:53:00,21.1,19.6,29.77,SSE,152,5.0,5.0,94,0.00,,,0.00,Wunderground v.1.15,2014-01-12 08:53:00,
2014-01-12 02:59:00,20.9,19.4,29.77,SE,144,5.0,6.0,94,0.00,,,0.00,Wunderground v.1.15,2014-01-12 08:59:00,
2014-01-12 03:04:00,20.7,19.2,29.77,SE,142,5.0,5.0,94,0.00,,,0.00,Wunderground v.1.15,2014-01-12 09:04:00,
2014-01-12 03:09:00,20.7,19.5,29.77,SE,144,5.0,5.0,95,0.00,,,0.00,Wunderground v.1.15,2014-01-12 09:09:00,
2014-01-12 03:14:00,20.7,19.2,29.77,SSE,150,5.0,5.0,94,0.00,,,0.00,Wunderground v.1.15,2014-01-12 09:14:00,
2014-01-12 03:19:00,21.2,20.0,29.76,SSE,148,8.0,8.0,95,0.00,,,0.00,Wunderground v.1.15,2014-01-12 09:19:00,
2014-01-12 03:25:00,22.3,21.3,29.76,South,174,7.0,8.0,96,0.00,,,0.00,Wunderground v.1.15,2014-01-12 09:25:00,
2014-01-12 03:30:00,22.6,21.6,29.76,SSE,152,4.0,9.0,96,0.00,,,0.00,Wunderground v.1.15,2014-01-12 09:30:00,
2014-01-12 03:35:00,22.1,20.6,29.75,SSE,153,6.0,6.0,94,0.00,,,0.00,Wunderground v.1.15,2014-01-12 09:35:00,
2014-01-12 03:40:00,21.5,20.0,29.75,SE,141,5.0,7.0,94,0.00,,,0.00,Wunderground v.1.15,2014-01-12 09:40:00,
2014-01-12 03:45:00,21.2,19.7,29.75,SSE,148,5.0,6.0,94,0.00,,,0.00,Wunderground v.1.15,2014-01-12 09:45:00,
2014-01-12 03:50:00,21.2,20.0,29.74,SSE,147,5.0,6.0,95,0.00,,,0.00,Wunderground v.1.15,2014-01-12 09:50:00,
2014-01-12 03:55:00,21.4,20.2,29.74,SE,146,5.0,6.0,95,0.00,,,0.00,Wunderground v.1.15,2014-01-12 09:55:00,
2014-01-12 04:03:00,21.8,20.6,29.73,SE,144,5.0,5.0,95,0.00,,,0.00,Wunderground v.1.15,2014-01-12 10:03:00,
2014-01-12 04:08:00,22.1,20.9,29.73,SSE,151,6.0,9.0,95,0.00,,,0.00,Wunderground v.1.15,2014-01-12 10:08:00,
2014-01-12 04:13:00,22.6,21.6,29.73,SSE,165,5.0,6.0,96,0.00,,,0.00,Wunderground v.1.15,2014-01-12 10:13:00,
2014-01-12 04:18:00,22.8,21.6,29.73,SSE,151,5.0,8.0,95,0.00,,,0.00,Wunderground v.1.15,2014-01-12 10:18:00,
2014-01-12 04:23:00,22.8,21.6,29.73,SSE,155,5.0,8.0,95,0.00,,,0.00,Wunderground v.1.15,2014-01-12 10:23:00,
2014-01-12 04:28:00,22.8,21.6,29.72,SSE,153,5.0,8.0,95,0.00,,,0.00,Wunderground v.1.15,2014-01-12 10:28:00,
2014-01-12 04:33:00,22.5,21.0,29.72,SE,143,5.0,6.0,94,0.00,,,0.00,Wunderground v.1.15,2014-01-12 10:33:00,
2014-01-12 04:38:00,22.3,21.1,29.72,SSE,153,5.0,7.0,95,0.00,,,0.00,Wunderground v.1.15,2014-01-12 10:38:00,
2014-01-12 04:43:00,22.2,21.0,29.72,SSE,148,4.0,5.0,95,0.00,,,0.00,Wunderground v.1.15,2014-01-12 10:43:00,
2014-01-12 04:48:00,22.5,21.3,29.72,SSE,168,8.0,9.0,95,0.00,,,0.00,Wunderground v.1.15,2014-01-12 10:48:00,
2014-01-12 04:54:00,23.0,21.8,29.71,SSE,152,6.0,8.0,95,0.00,,,0.00,Wunderground v.1.15,2014-01-12 10:54:00,
2014-01-12 04:59:00,23.4,22.4,29.71,SSE,153,7.0,10.0,96,0.00,,,0.00,Wunderground v.1.15,2014-01-12 10:59:00,
2014-01-12 05:04:00,24.0,23.0,29.71,SE,135,10.0,12.0,96,0.00,,,0.00,Wunderground v.1.15,2014-01-12 11:04:00,
2014-01-12 05:09:00,24.4,23.4,29.70,SSE,153,11.0,12.0,96,0.00,,,0.00,Wunderground v.1.15,2014-01-12 11:09:00,
2014-01-12 05:14:00,24.4,23.2,29.70,SSE,163,12.0,12.0,95,0.00,,,0.00,Wunderground v.1.15,2014-01-12 11:14:00,
2014-01-12 05:19:00,24.5,23.3,29.70,SSE,165,10.0,13.0,95,0.00,,,0.00,Wunderground v.1.15,2014-01-12 11:19:00,
2014-01-12 05:24:00,24.9,23.7,29.70,South,170,12.0,13.0,95,0.00,,,0.00,Wunderground v.1.15,2014-01-12 11:24:00,
2014-01-12 05:29:00,25.1,23.9,29.70,SSE,165,10.0,14.0,95,0.00,,,0.00,Wunderground v.1.15,2014-01-12 11:29:00,
2014-01-12 05:34:00,25.1,23.9,29.69,South,178,10.0,14.0,95,0.00,,,0.00,Wunderground v.1.15,2014-01-12 11:34:00,
2014-01-12 05:39:00,25.5,24.3,29.69,SSE,160,9.0,14.0,95,0.00,,,0.00,Wunderground v.1.15,2014-01-12 11:39:00,
2014-01-12 05:44:00,25.9,24.7,29.69,South,177,6.0,13.0,95,0.00,,,0.00,Wunderground v.1.15,2014-01-12 11:44:00,
2014-01-12 05:52:00,26.1,24.6,29.69,SE,138,5.0,5.0,94,0.00,,,0.00,Wunderground v.1.15,2014-01-12 11:52:00,
2014-01-12 05:58:00,26.0,24.5,29.69,SSW,195,8.0,11.0,94,0.00,,,0.00,Wunderground v.1.15,2014-01-12 11:58:00,
2014-01-12 06:03:00,26.3,24.8,29.69,SSE,158,10.0,10.0,94,0.00,,,0.00,Wunderground v.1.15,2014-01-12 12:03:00,
2014-01-12 06:08:00,26.6,25.1,29.68,South,169,13.0,13.0,94,0.00,,,0.00,Wunderground v.1.15,2014-01-12 12:08:00,
2014-01-12 06:13:00,27.2,25.7,29.68,South,175,13.0,15.0,94,0.00,,,0.00,Wunderground v.1.15,2014-01-12 12:13:00,
2014-01-12 06:18:00,27.4,25.6,29.68,SSE,165,11.0,15.0,93,0.00,,,0.00,Wunderground v.1.15,2014-01-12 12:18:00,
2014-01-12 06:23:00,27.6,25.8,29.68,South,175,12.0,16.0,93,0.00,,,0.00,Wunderground v.1.15,2014-01-12 12:23:00,
2014-01-12 06:28:00,28.0,26.0,29.67,SSE,164,11.0,16.0,92,0.00,,,0.00,Wunderground v.1.15,2014-01-12 12:28:00,
2014-01-12 06:33:00,28.2,26.2,29.67,South,169,12.0,13.0,92,0.00,,,0.00,Wunderground v.1.15,2014-01-12 12:33:00,
2014-01-12 06:38:00,28.3,26.0,29.67,SSE,154,10.0,14.0,91,0.00,,,0.00,Wunderground v.1.15,2014-01-12 12:38:00,
2014-01-12 06:43:00,28.4,26.1,29.67,SSE,156,12.0,12.0,91,0.00,,,0.00,Wunderground v.1.15,2014-01-12 12:43:00,
2014-01-12 06:48:00,28.4,26.1,29.66,SE,144,9.0,12.0,91,0.00,,,0.00,Wunderground v.1.15,2014-01-12 12:48:00,
2014-01-12 06:53:00,28.4,26.1,29.66,South,180,12.0,14.0,91,0.00,,,0.00,Wunderground v.1.15,2014-01-12 12:53:00,
2014-01-12 06:58:00,29.1,27.1,29.65,SSE,159,12.0,15.0,92,0.00,,,0.00,Wunderground v.1.15,2014-01-12 12:58:00,
2014-01-12 07:03:00,29.6,27.0,29.65,South,173,12.0,15.0,90,0.00,,,0.00,Wunderground v.1.15,2014-01-12 13:03:00,
2014-01-12 07:08:00,29.8,27.0,29.65,SSE,158,13.0,15.0,89,0.00,,,0.00,Wunderground v.1.15,2014-01-12 13:08:00,
2014-01-12 07:13:00,29.9,27.1,29.65,SSE,149,13.0,16.0,89,0.00,,,0.00,Wunderground v.1.15,2014-01-12 13:13:00,
2014-01-12 07:18:00,30.1,27.3,29.65,SSE,167,14.0,18.0,89,0.00,,,0.00,Wunderground v.1.15,2014-01-12 13:18:00,
2014-01-12 07:23:00,30.1,27.0,29.65,South,173,17.0,17.0,88,0.00,,,0.00,Wunderground v.1.15,2014-01-12 13:23:00,
2014-01-12 07:28:00,30.0,26.9,29.64,SSE,147,17.0,18.0,88,0.00,,,0.00,Wunderground v.1.15,2014-01-12 13:28:00,
2014-01-12 07:33:00,30.1,27.0,29.64,SSE,164,18.0,18.0,88,0.00,,,0.00,Wunderground v.1.15,2014-01-12 13:33:00,
2014-01-12 07:38:00,30.4,27.3,29.64,SE,141,15.0,18.0,88,0.00,,,0.00,Wunderground v.1.15,2014-01-12 13:38:00,
2014-01-12 07:43:00,30.7,27.6,29.64,SSE,159,15.0,18.0,88,0.00,,,0.00,Wunderground v.1.15,2014-01-12 13:43:00,
2014-01-12 07:48:00,31.0,27.6,29.64,South,172,15.0,21.0,87,0.00,,,0.00,Wunderground v.1.15,2014-01-12 13:48:00,
2014-01-12 07:53:00,31.2,27.8,29.64,SSE,165,16.0,18.0,87,0.00,,,0.00,Wunderground v.1.15,2014-01-12 13:53:00,
2014-01-12 07:58:00,31.5,27.8,29.64,South,170,16.0,20.0,86,0.00,,,0.00,Wunderground v.1.15,2014-01-12 13:58:00,
2014-01-12 08:03:00,31.7,27.7,29.63,SSE,163,16.0,19.0,85,0.00,,,0.00,Wunderground v.1.15,2014-01-12 14:03:00,
2014-01-12 08:08:00,32.0,28.3,29.64,SE,137,15.0,20.0,86,0.00,,,0.00,Wunderground v.1.15,2014-01-12 14:08:00,
2014-01-12 08:13:00,32.4,28.4,29.64,SSE,161,16.0,16.0,85,0.00,,,0.00,Wunderground v.1.15,2014-01-12 14:13:00,
2014-01-12 08:18:00,32.7,28.4,29.63,SSE,154,15.0,19.0,84,0.00,,,0.00,Wunderground v.1.15,2014-01-12 14:18:00,
2014-01-12 08:23:00,33.1,28.8,29.63,South,176,15.0,17.0,84,0.00,,,0.00,Wunderground v.1.15,2014-01-12 14:23:00,
2014-01-12 08:28:00,33.4,28.8,29.62,South,169,17.0,19.0,83,0.00,,,0.00,Wunderground v.1.15,2014-01-12 14:28:00,
2014-01-12 08:33:00,33.6,29.3,29.62,SSE,155,16.0,22.0,84,0.00,,,0.00,Wunderground v.1.15,2014-01-12 14:33:00,
2014-01-12 08:38:00,34.0,29.4,29.62,South,169,10.0,23.0,83,0.00,,,0.00,Wunderground v.1.15,2014-01-12 14:38:00,
2014-01-12 08:43:00,34.0,29.4,29.62,South,182,15.0,20.0,83,0.00,,,0.00,Wunderground v.1.15,2014-01-12 14:43:00,
2014-01-12 08:48:00,33.7,29.1,29.62,South,169,14.0,20.0,83,0.00,,,0.00,Wunderground v.1.15,2014-01-12 14:48:00,
2014-01-12 08:53:00,33.5,29.2,29.61,South,174,23.0,23.0,84,0.00,,,0.00,Wunderground v.1.15,2014-01-12 14:53:00,
2014-01-12 08:58:00,33.9,29.6,29.61,SSE,166,17.0,23.0,84,0.00,,,0.00,Wunderground v.1.15,2014-01-12 14:58:00,
2014-01-12 09:04:00,33.9,29.6,29.61,SSE,163,21.0,21.0,84,0.00,,,0.00,Wunderground v.1.15,2014-01-12 15:04:00,
2014-01-12 09:09:00,33.9,29.6,29.61,SSE,165,22.0,22.0,84,0.00,,,0.00,Wunderground v.1.15,2014-01-12 15:09:00,
2014-01-12 09:14:00,34.1,29.8,29.61,SSE,163,20.0,24.0,84,0.00,,,0.00,Wunderground v.1.15,2014-01-12 15:14:00,
2014-01-12 09:19:00,34.3,30.0,29.61,SSE,166,22.0,24.0,84,0.00,,,0.00,Wunderground v.1.15,2014-01-12 15:19:00,
2014-01-12 09:24:00,34.8,30.5,29.60,SSE,167,19.0,25.0,84,0.00,,,0.00,Wunderground v.1.15,2014-01-12 15:24:00,
2014-01-12 09:29:00,36.0,31.3,29.60,South,173,17.0,27.0,83,0.00,,,0.00,Wunderground v.1.15,2014-01-12 15:29:00,
2014-01-12 09:34:00,36.5,31.2,29.60,SSE,166,20.0,23.0,81,0.00,,,0.00,Wunderground v.1.15,2014-01-12 15:34:00,
2014-01-12 09:39:00,36.7,31.7,29.60,South,175,24.0,26.0,82,0.00,,,0.00,Wunderground v.1.15,2014-01-12 15:39:00,
2014-01-12 09:44:00,36.8,31.5,29.60,South,169,22.0,24.0,81,0.00,,,0.00,Wunderground v.1.15,2014-01-12 15:44:00,
2014-01-12 09:49:00,37.3,31.7,29.60,South,173,23.0,31.0,80,0.00,,,0.00,Wunderground v.1.15,2014-01-12 15:49:00,
2014-01-12 09:54:00,37.5,31.9,29.60,SSE,159,22.0,25.0,80,0.00,,,0.00,Wunderground v.1.15,2014-01-12 15:54:00,
2014-01-12 09:59:00,37.8,31.9,29.60,South,170,21.0,31.0,79,0.00,,,0.00,Wunderground v.1.15,2014-01-12 15:59:00,
2014-01-12 10:04:00,37.7,32.1,29.60,SSE,167,22.0,24.0,80,0.00,,,0.00,Wunderground v.1.15,2014-01-12 16:04:00,
2014-01-12 10:09:00,37.9,32.0,29.60,South,177,20.0,21.0,79,0.00,,,0.00,Wunderground v.1.15,2014-01-12 16:09:00,
2014-01-12 10:14:00,38.0,32.1,29.61,South,183,18.0,24.0,79,0.00,,,0.00,Wunderground v.1.15,2014-01-12 16:14:00,
2014-01-12 10:19:00,38.0,32.1,29.60,South,177,23.0,25.0,79,0.00,,,0.00,Wunderground v.1.15,2014-01-12 16:19:00,
2014-01-12 10:24:00,38.1,32.2,29.60,South,175,17.0,20.0,79,0.00,,,0.00,Wunderground v.1.15,2014-01-12 16:24:00,
2014-01-12 10:29:00,37.9,32.3,29.60,South,171,20.0,23.0,80,0.00,,,0.00,Wunderground v.1.15,2014-01-12 16:29:00,
2014-01-12 10:34:00,37.8,32.2,29.59,South,169,20.0,21.0,80,0.00,,,0.00,Wunderground v.1.15,2014-01-12 16:34:00,
2014-01-12 10:39:00,37.9,32.3,29.59,South,173,18.0,22.0,80,0.00,,,0.00,Wunderground v.1.15,2014-01-12 16:39:00,
2014-01-12 10:44:00,38.0,32.4,29.59,SSE,163,16.0,19.0,80,0.00,,,0.00,Wunderground v.1.15,2014-01-12 16:44:00,
2014-01-12 10:49:00,38.0,32.4,29.58,SSE,160,16.0,21.0,80,0.00,,,0.00,Wunderground v.1.15,2014-01-12 16:49:00,
2014-01-12 18:03:00,39.3,34.6,29.56,South,185,2.0,2.0,83,0.00,,,0.00,Wunderground v.1.15,2014-01-13 00:03:00,
2014-01-12 18:08:00,39.6,34.9,29.56,South,185,2.0,3.0,83,0.00,,,0.00,Wunderground v.1.15,2014-01-13 00:08:00,
2014-01-12 18:13:00,39.8,34.8,29.56,South,178,4.0,4.0,82,0.00,,,0.00,Wunderground v.1.15,2014-01-13 00:13:00,
2014-01-12 18:18:00,40.0,34.6,29.56,SSE,167,5.0,6.0,81,0.00,,,0.00,Wunderground v.1.15,2014-01-13 00:18:00,
2014-01-12 18:24:00,40.0,34.3,29.56,SSE,154,4.0,5.0,80,0.00,,,0.00,Wunderground v.1.15,2014-01-13 00:24:00,
2014-01-12 18:29:00,39.7,34.0,29.56,SSE,148,4.0,5.0,80,0.00,,,0.00,Wunderground v.1.15,2014-01-13 00:29:00,
2014-01-12 18:34:00,39.2,33.5,29.56,SSE,163,2.0,4.0,80,0.00,,,0.00,Wunderground v.1.15,2014-01-13 00:34:00,
2014-01-12 18:39:00,38.9,33.9,29.56,SSE,155,4.0,6.0,82,0.00,,,0.00,Wunderground v.1.15,2014-01-13 00:39:00,
2014-01-12 18:44:00,38.9,33.9,29.56,South,170,4.0,5.0,82,0.00,,,0.00,Wunderground v.1.15,2014-01-13 00:44:00,
2014-01-12 18:49:00,38.9,33.9,29.56,South,169,4.0,5.0,82,0.00,,,0.00,Wunderground v.1.15,2014-01-13 00:49:00,
2014-01-12 18:54:00,38.7,33.7,29.56,SSE,157,4.0,5.0,82,0.00,,,0.00,Wunderground v.1.15,2014-01-13 00:54:00,
2014-01-12 18:59:00,38.5,33.8,29.56,South,169,5.0,5.0,83,0.00,,,0.00,Wunderground v.1.15,2014-01-13 00:59:00,
2014-01-12 19:04:00,38.5,33.8,29.56,South,170,4.0,5.0,83,0.00,,,0.00,Wunderground v.1.15,2014-01-13 01:04:00,
2014-01-12 19:09:00,38.4,33.4,29.55,South,170,2.0,4.0,82,0.00,,,0.00,Wunderground v.1.15,2014-01-13 01:09:00,
2014-01-12 19:15:00,38.2,33.5,29.56,South,170,4.0,4.0,83,0.00,,,0.00,Wunderground v.1.15,2014-01-13 01:15:00,
2014-01-12 19:20:00,38.1,33.4,29.56,SSE,167,5.0,5.0,83,0.00,,,0.00,Wunderground v.1.15,2014-01-13 01:20:00,
2014-01-12 19:25:00,38.1,33.4,29.56,South,173,4.0,4.0,83,0.00,,,0.00,Wunderground v.1.15,2014-01-13 01:25:00,
2014-01-12 19:30:00,37.9,33.2,29.56,South,182,3.0,4.0,83,0.00,,,0.00,Wunderground v.1.15,2014-01-13 01:30:00,
2014-01-12 19:35:00,37.7,33.0,29.56,South,169,4.0,5.0,83,0.00,,,0.00,Wunderground v.1.15,2014-01-13 01:35:00,
2014-01-12 19:40:00,37.5,32.8,29.56,South,181,3.0,5.0,83,0.00,,,0.00,Wunderground v.1.15,2014-01-13 01:40:00,
2014-01-12 19:45:00,37.1,32.7,29.56,South,181,3.0,4.0,84,0.00,,,0.00,Wunderground v.1.15,2014-01-13 01:45:00,
2014-01-12 19:50:00,36.8,32.4,29.56,South,181,1.0,4.0,84,0.00,,,0.00,Wunderground v.1.15,2014-01-13 01:50:00,
2014-01-12 19:55:00,36.5,32.1,29.56,South,181,3.0,3.0,84,0.00,,,0.00,Wunderground v.1.15,2014-01-13 01:55:00,
2014-01-12 20:00:00,36.2,32.1,29.57,SSE,163,5.0,5.0,85,0.00,,,0.00,Wunderground v.1.15,2014-01-13 02:00:00,
2014-01-12 20:05:00,36.3,32.5,29.57,SSE,159,4.0,5.0,86,0.00,,,0.00,Wunderground v.1.15,2014-01-13 02:05:00,
2014-01-12 20:10:00,36.3,32.5,29.57,South,174,2.0,4.0,86,0.00,,,0.00,Wunderground v.1.15,2014-01-13 02:10:00,
2014-01-12 20:15:00,36.0,32.2,29.56,South,182,1.0,4.0,86,0.00,,,0.00,Wunderground v.1.15,2014-01-13 02:15:00,
2014-01-12 20:20:00,35.9,32.1,29.56,South,182,0.0,4.0,86,0.00,,,0.00,Wunderground v.1.15,2014-01-13 02:20:00,
2014-01-12 20:25:00,35.8,32.3,29.56,South,182,1.0,1.0,87,0.00,,,0.00,Wunderground v.1.15,2014-01-13 02:25:00,
2014-01-12 20:30:00,36.0,32.5,29.55,South,182,1.0,2.0,87,0.00,,,0.00,Wunderground v.1.15,2014-01-13 02:30:00,
2014-01-12 20:35:00,36.2,32.7,29.55,South,182,0.0,0.0,87,0.00,,,0.00,Wunderground v.1.15,2014-01-13 02:35:00,
2014-01-12 20:40:00,36.2,32.4,29.55,South,182,0.0,0.0,86,0.00,,,0.00,Wunderground v.1.15,2014-01-13 02:40:00,
2014-01-12 20:45:00,36.2,32.4,29.55,South,182,0.0,0.0,86,0.00,,,0.00,Wunderground v.1.15,2014-01-13 02:45:00,
2014-01-12 20:50:00,36.2,32.7,29.55,SSE,148,4.0,4.0,87,0.00,,,0.00,Wunderground v.1.15,2014-01-13 02:50:00,
2014-01-12 20:55:00,36.2,32.4,29.55,SE,145,1.0,4.0,86,0.00,,,0.00,Wunderground v.1.15,2014-01-13 02:55:00,
2014-01-12 21:00:00,36.2,32.7,29.55,SSE,148,2.0,2.0,87,0.00,,,0.00,Wunderground v.1.15,2014-01-13 03:00:00,
2014-01-12 21:05:00,36.4,32.9,29.55,SSE,148,1.0,2.0,87,0.00,,,0.00,Wunderground v.1.15,2014-01-13 03:05:00,
2014-01-12 21:10:00,36.5,33.0,29.55,SSE,148,0.0,1.0,87,0.00,,,0.00,Wunderground v.1.15,2014-01-13 03:10:00,
2014-01-12 21:15:00,36.4,32.3,29.55,SSE,148,2.0,4.0,85,0.00,,,0.00,Wunderground v.1.15,2014-01-13 03:15:00,
2014-01-12 21:21:00,35.7,31.6,29.56,SE,133,0.0,4.0,85,0.00,,,0.00,Wunderground v.1.15,2014-01-13 03:21:00,
2014-01-12 21:26:00,35.5,32.0,29.56,SE,133,0.0,1.0,87,0.00,,,0.00,Wunderground v.1.15,2014-01-13 03:26:00,
2014-01-12 21:32:00,35.3,31.8,29.56,SE,133,0.0,0.0,87,0.00,,,0.00,Wunderground v.1.15,2014-01-13 03:32:00,
2014-01-12 21:37:00,35.3,32.1,29.56,SE,133,0.0,0.0,88,0.00,,,0.00,Wunderground v.1.15,2014-01-13 03:37:00,
2014-01-12 21:42:00,35.3,31.8,29.56,SE,133,1.0,1.0,87,0.00,,,0.00,Wunderground v.1.15,2014-01-13 03:42:00,
2014-01-12 21:47:00,35.1,31.9,29.56,SE,127,2.0,4.0,88,0.00,,,0.00,Wunderground v.1.15,2014-01-13 03:47:00,
2014-01-12 21:52:00,35.0,31.8,29.56,NNW,346,2.0,2.0,88,0.00,,,0.00,Wunderground v.1.15,2014-01-13 03:52:00,
2014-01-12 21:58:00,34.9,32.0,29.57,NNW,336,2.0,3.0,89,0.00,,,0.00,Wunderground v.1.15,2014-01-13 03:58:00,
2014-01-12 22:03:00,34.8,31.9,29.56,NNW,336,2.0,2.0,89,0.00,,,0.00,Wunderground v.1.15,2014-01-13 04:03:00,
2014-01-12 22:08:00,34.8,32.2,29.57,NNW,336,1.0,3.0,90,0.00,,,0.00,Wunderground v.1.15,2014-01-13 04:08:00,
2014-01-12 22:13:00,34.8,32.2,29.56,NNW,336,0.0,2.0,90,0.00,,,0.00,Wunderground v.1.15,2014-01-13 04:13:00,
2014-01-12 22:18:00,34.8,32.2,29.56,NNW,336,2.0,2.0,90,0.00,,,0.00,Wunderground v.1.15,2014-01-13 04:18:00,
2014-01-12 22:23:00,34.9,32.3,29.56,NW,317,3.0,3.0,90,0.00,,,0.00,Wunderground v.1.15,2014-01-13 04:23:00,
2014-01-12 22:28:00,35.0,32.6,29.56,NW,315,3.0,4.0,91,0.00,,,0.00,Wunderground v.1.15,2014-01-13 04:28:00,
2014-01-12 22:33:00,35.0,32.6,29.56,NW,315,3.0,3.0,91,0.00,,,0.00,Wunderground v.1.15,2014-01-13 04:33:00,
2014-01-12 22:38:00,35.1,32.7,29.56,NW,319,2.0,4.0,91,0.00,,,0.00,Wunderground v.1.15,2014-01-13 04:38:00,
2014-01-12 22:43:00,35.2,32.8,29.56,NW,319,1.0,3.0,91,0.00,,,0.00,Wunderground v.1.15,2014-01-13 04:43:00,
2014-01-12 22:48:00,35.2,32.8,29.56,NW,319,0.0,3.0,91,0.00,,,0.00,Wunderground v.1.15,2014-01-13 04:48:00,
2014-01-12 22:53:00,35.3,32.7,29.57,NW,311,4.0,4.0,90,0.00,,,0.00,Wunderground v.1.15,2014-01-13 04:53:00,
2014-01-12 22:58:00,35.2,32.8,29.57,NW,306,2.0,4.0,91,0.00,,,0.00,Wunderground v.1.15,2014-01-13 04:58:00,
2014-01-12 23:02:00,35.1,32.7,29.57,WNW,298,2.0,2.0,91,0.00,,,0.00,Wunderground v.1.15,2014-01-13 05:02:00,
2014-01-12 23:03:00,35.1,32.7,29.57,WNW,298,2.0,2.0,91,0.00,,,0.00,Wunderground v.1.15,2014-01-13 05:03:00,
2014-01-12 23:04:00,35.1,32.7,29.57,WNW,298,2.0,3.0,91,0.00,,,0.00,Wunderground v.1.15,2014-01-13 05:04:00,
2014-01-12 23:09:00,35.1,32.7,29.57,WNW,298,1.0,1.0,91,0.00,,,0.00,Wunderground v.1.15,2014-01-13 05:09:00,
2014-01-12 23:14:00,35.1,32.7,29.57,WNW,298,0.0,1.0,91,0.00,,,0.00,Wunderground v.1.15,2014-01-13 05:14:00,
2014-01-12 23:19:00,35.2,32.8,29.57,WNW,298,0.0,1.0,91,0.00,,,0.00,Wunderground v.1.15,2014-01-13 05:19:00,
2014-01-12 23:24:00,35.3,32.9,29.57,WNW,298,0.0,0.0,91,0.00,,,0.00,Wunderground v.1.15,2014-01-13 05:24:00,
2014-01-12 23:29:00,35.3,32.9,29.57,WNW,298,1.0,1.0,91,0.00,,,0.00,Wunderground v.1.15,2014-01-13 05:29:00,
2014-01-12 23:34:00,35.4,33.0,29.57,WNW,298,0.0,1.0,91,0.00,,,0.00,Wunderground v.1.15,2014-01-13 05:34:00,
2014-01-12 23:39:00,35.5,33.1,29.57,WNW,294,1.0,3.0,91,0.00,,,0.00,Wunderground v.1.15,2014-01-13 05:39:00,
2014-01-12 23:44:00,35.6,33.2,29.57,WNW,294,1.0,1.0,91,0.00,,,0.00,Wunderground v.1.15,2014-01-13 05:44:00,
2014-01-12 23:49:00,35.6,33.2,29.57,WNW,294,0.0,1.0,91,0.00,,,0.00,Wunderground v.1.15,2014-01-13 05:49:00,
2014-01-12 23:54:00,35.7,33.3,29.57,West,280,0.0,3.0,91,0.00,,,0.00,Wunderground v.1.15,2014-01-13 05:54:00,